This demonstration page uses our WeatherBlox Daily Observations layout. Learn more.

Left ArrowRight Arrow

44.8408, -93.29828

Hourly Observations for December 16, 2019

Temp ( °F °C ) Dew Point ( °F °C ) Humidity (%) Winds ( mph kmh ) Pressure ( in mb ) Visibility ( mi km ) Precip ( " mm )
12:53 am 00:53 Cloudy 18 -7.8 10 -12.2 71 71 SW 7 11 30.14 1021 10 16 0.00 0.00
1:53 am 01:53 Cloudy 18 -7.8 11 -11.7 74 74 SW 7 11 30.14 1021 10 16 0.00 0.00
2:15 am 02:15 Cloudy 19 -7.2 11 -11.7 71 71 SW 10 17 30.17 1022 10 16 0.00 0.00
2:44 am 02:44 Cloudy 19 -7.2 12 -11.1 74 74 WSW 6 9 30.19 1022 10 16 0.00 0.00
2:53 am 02:53 Cloudy 19 -7.2 12 -11.1 74 74 WSW 6 9 30.17 1022 10 16 0.00 0.00
3:08 am 03:08 Cloudy 19 -7.2 12 -11.1 74 74 SW 8 13 30.19 1022 10 16 0.00 0.00
3:53 am 03:53 Cloudy 19 -7.2 12 -11.1 74 74 SW 10 17 30.17 1022 10 16 0.00 0.00
4:53 am 04:53 Cloudy 19 -7.2 13 -10.6 77 77 W 8 13 30.17 1022 10 16 0.00 0.00
5:43 am 05:43 Cloudy 19 -7.2 14 -10 81 81 W 5 7 30.20 1023 10 16 0.00 0.00
5:53 am 05:53 Cloudy 19 -7.2 14 -10 81 81 W 5 7 30.18 1022 10 16 0.00 0.00
6:53 am 06:53 Cloudy 20 -6.7 14 -10 78 78 WSW 6 9 30.19 1023 10 16 0.00 0.00
7:53 am 07:53 Cloudy 20 -6.7 14 -10 78 78 SW 5 7 30.21 1023 10 16 0.00 0.00
8:34 am 08:34 Cloudy 20 -6.7 14 -10 78 78 SW 6 9 30.25 1024 10 16 0.00 0.00
8:53 am 08:53 Cloudy 21 -6.1 15 -9.4 78 78 SSW 5 7 30.22 1023 10 16 0.00 0.00
9:53 am 09:53 Cloudy 22 -5.6 15 -9.4 75 75 SW 8 13 30.24 1024 10 16 0.00 0.00
10:53 am 10:53 Cloudy 23 -5 16 -8.9 74 74 WSW 7 11 30.24 1024 10 16 0.00 0.00
11:53 am 11:53 Cloudy 24 -4.4 17 -8.3 75 75 WSW 7 11 30.22 1023 10 16 0.00 0.00
12:53 pm 12:53 Cloudy 26 -3.3 18 -7.8 71 71 WSW 7 11 30.21 1023 10 16 0.00 0.00
1:53 pm 13:53 Mostly Cloudy 26 -3.3 16 -8.9 66 66 W 12 19 30.21 1023 10 16 0.00 0.00
2:53 pm 14:53 Mostly Cloudy 26 -3.3 16 -8.9 66 66 W 9 15 30.21 1023 10 16 0.00 0.00
3:53 pm 15:53 Partly Cloudy 26 -3.3 16 -8.9 66 66 W 9 15 30.22 1023 10 16 0.00 0.00
4:53 pm 16:53 Mostly Clear 24 -4.4 16 -8.9 71 71 W 6 9 30.22 1024 10 16 0.00 0.00
5:53 pm 17:53 Mostly Clear 22 -5.6 15 -9.4 75 75 WSW 8 13 30.23 1024 9 14 0.00 0.00
6:53 pm 18:53 Mostly Clear 21 -6.1 14 -10 74 74 W 6 9 30.24 1024 7 11 0.00 0.00
7:53 pm 19:53 Mostly Clear 20 -6.7 15 -9.4 81 81 WSW 6 9 30.23 1024 8 13 0.00 0.00
8:53 pm 20:53 Partly Cloudy 19 -7.2 14 -10 81 81 WSW 6 9 30.22 1024 8 13 0.00 0.00
9:53 pm 21:53 Partly Cloudy 19 -7.2 14 -10 81 81 SW 7 11 30.20 1023 8 13 0.00 0.00
10:53 pm 22:53 Mostly Cloudy 19 -7.2 15 -9.4 84 84 SW 6 9 30.19 1022 7 11 0.00 0.00
11:33 pm 23:33 Cloudy 19 -7.2 15 -9.4 84 84 SW 5 7 30.21 1023 7 11 0.00 0.00
11:44 pm 23:44 Cloudy 19 -7.2 15 -9.4 84 84 SW 5 7 30.21 1023 7 11 0.00 0.00
11:53 pm 23:53 Cloudy 20 -6.7 15 -9.4 81 81 WSW 5 7 30.19 1022 7 11 0.00 0.00

Powered by AerisWeather